Notices

What's New in latest Release from April 7th, 2021:

- Updated Glossary, including Speed of Maximum Gust, and Total Hourly Precipitation

- Updated national and regional climate services offices contacts and prices information

- Addition of station inventory lists for 1981-2010, 1971-2000, and 1961-1990 Normals.

If you haven't already, please take our survey and provide feedback about our website: https://eccc.sondage-survey.ca/f/LanguageSelection.aspx?s=442ca660-fcf1-47c0-95a9-59707d6fd709

Hourly Data Report for April 16, 2021

MUSKOKA
ONTARIO
Current Station Operator: NAVCAN

44°58'29.000" N
79°18'12.000" W
281.90 m
6115529
71532
YQA

Download Data

Hourly Data (April 2021)
Hourly Data Report for April 16, 2021
TIME
LST
Temp Definition
°C
Dew Point Definition
°C
Rel Hum Definition
%
Precip. Amount Definition
mm

Wind Dir Definition
10's deg

Wind Spd Definition
km/h
Visibility Definition
km
Stn Press Definition
kPa
Hmdx Definition


Wind Chill Definition


Weather Definition


00:00 3.9 3.2 95 0.8 32 17 16.1 97.19     Rain
01:00 3.6 2.9 95 0.5 31 13 16.1 97.18     Rain
02:00 3.3 2.6 95 0.5 32 13 16.1 97.17     Rain
03:00 3.2 2.6 96 0.0 29 13 16.1 97.16     Rain
04:00 3.3 2.9 97 0.0 30 11 16.1 97.15     LegendNANA
05:00 3.5 3.1 97 0.0 30 11 16.1 97.14     LegendNANA
06:00 3.7 3.3 97 0.0 30 11 16.1 97.17     LegendNANA
07:00 3.9 3.3 96 0.0 31 11 16.1 97.20     LegendNANA
08:00 4.0 3.4 96 0.0 30 13 16.1 97.20     LegendNANA
09:00 4.4 3.7 95 0.2 30 15 16.1 97.22     LegendNANA
10:00 5.3 4.6 95 0.0 30 11 16.1 97.24     LegendNANA
11:00 5.3 4.7 96 0.0 31 11 11.3 97.25     Rain
12:00 6.0 5.3 95 0.5 32 11 14.5 97.24     Rain
13:00 6.0 5.6 97 0.2 29 15 2.8 97.25     Rain,Fog
14:00 6.7 5.7 93 1.8   0 16.1 97.30     Rain
15:00 6.2 5.5 95 0.0 26 11 16.1 97.32     LegendNANA
16:00 6.9 6.1 95 0.0 27 11 16.1 97.36     LegendNANA
17:00 7.0 6.1 94 0.5 27 8 16.1 97.43     Rain
18:00 7.2 5.9 91 0.0 23 4 16.1 97.50     LegendNANA
19:00 5.2 4.0 92 0.2   0 16.1 97.58     LegendNANA
20:00 3.4 3.0 97 0.0   0 2.4 97.65     Fog
21:00 1.8 1.5 98 0.0   0 1.2 97.66     Fog
22:00 1.5 1.4 99 0.0 33 5 14.5 97.69     LegendNANA
23:00 2.0 1.9 99 0.0 36 5 2.0 97.69     Fog

Notes on Data Quality.

Legend

  • E = Estimated
  • M = Missing
  • NA = Not Available*
  • [empty] = Indicates an unobserved value
Date modified: